Location: Zengebe
(1.4833°N, 32.5167°E)
Time: 23:11:26
(UTC+00:00)

Cosmos 1802 Rocket - Pass Details

Date: 07 June 2020
Orbit: 955 x 1010 km, 82.9° (Epoch: 10 July)

Event Time Altitude Azimuth Distance (km) Brightness Sun altitude
Rises 03:04:16 0° 179° (S) 3,638 6.8 -9.7°
Reaches altitude 10° 03:06:47 10° 178° (S) 2,686 6.1 -9.1°
Maximum altitude 03:12:54 74° 93° (E) 991 4.3 -7.7°
Drops below altitude 10° 03:19:00 10° 9° (N) 2,677 6.8 -6.3°
Sets 03:21:29 0° 7° (N) 3,624 7.4 -5.7°
